Regional Weather Roundup
Issued by NWS

Home | Current Version | Previous Version | Graphics & Text | Print | Product List | Glossary On
Versions: 1 2 3 4 5 6 7 8 9 10 11 12 13 14 15 16 17 18 19 20 21 22 23 24 25 26 27 28 29 30 31 32 33 34 35 36 37 38 39 40 41 42 43 44 45 46 47 48 49 50
000
ASUS45 KABQ 230701
RWRNM
WEATHER ROUNDUP FOR NEW MEXICO
NATIONAL WEATHER SERVICE ALBUQUERQUE NM
100 AM MDT THU OCT 23 2014

NOTE: "FAIR" MEANS FEW OR NO CLOUDS BELOW 12,000 FEET AGL WITH NO
       SIGNIFICANT WEATHER OR OBSTRUCTIONS TO VISION.

      THIS PRODUCT IS RELEASED AS TWO VERSIONS.  ONE VERSION NEAR
      THE TOP OF THE HOUR CONTAINING PRELIMINARY DATA FROM ALBUQUERQUE
      AND OTHER STATIONS.  A FINAL VERSION WITH ADDITIONAL DATA IS
      ISSUED ABOUT 10 MINUTES AFTER THE HOUR.

NMZ501-503-504-510>518-230800-
NORTHWEST PLATEAU/NORTHCENTRAL MOUNTAINS

CITY           SKY/WX    TMP DP  RH WIND       PRES   REMARKS
FARMINGTON     CLEAR     47  34  60 NE5       30.21S
LOS ALAMOS     CLEAR     53  34  48 W6        30.29S
SANTA FE       CLEAR     51  35  54 CALM      30.23S
TAOS           CLEAR     39  28  65 N7        30.29R WCI  34
ANGEL FIRE     FAIR      29  26  86 CALM      30.33S

$$
NMZ402-403-502-505>509-230800-
WESTCENTRAL MOUNTAINS/SOUTHWEST MOUNTAINS

CITY           SKY/WX    TMP DP  RH WIND       PRES   REMARKS
GALLUP         CLEAR     40  35  83 CALM      30.28R
GRANTS         CLEAR     37  32  81 W3        30.29S
SILVER CITY    CLEAR     54  48  82 N9        30.23S

$$
NMZ407-409-411-412-230800-
SOUTHERN DESERTS

CITY           SKY/WX    TMP DP  RH WIND       PRES   REMARKS
LORDSBURG      FAIR      52  46  82 MISG      30.15S
DEMING         CLEAR     55  50  83 NW6       30.16S
HOLLOMAN AFB   CLEAR     55  49  79 E2        30.14R
T OR C           N/A     56  51  84 W7        30.17R

$$
NMZ519>523-230800-
CENTRAL VALLEYS/CENTRAL HIGHLANDS

CITY           SKY/WX    TMP DP  RH WIND       PRES   REMARKS
ALBUQUERQUE    CLEAR     57  44  62 SE6       30.20S
DOUBLE EAGLE   CLEAR     51  42  71 CALM      30.23R
MORIARTY ARPT  FAIR      40  37  86 CALM      30.25S
CLINES CORNERS CLEAR     48  35  60 W10       30.26S
BELEN          NOT AVBL
SOCORRO        FAIR      54  49  85 NW5       30.18R

$$
NMZ524>526-539-540-230800-
SOUTHCENTRAL MOUNTAINS

CITY           SKY/WX    TMP DP  RH WIND       PRES   REMARKS
RUIDOSO        CLEAR     48  39  71 SW10      30.28S

$$
NMZ527>531-230800-
NORTHEAST HIGHLANDS/NORTHEAST PLAINS

CITY           SKY/WX    TMP DP  RH WIND       PRES   REMARKS
LAS VEGAS      CLEAR     44  32  62 NE3       30.24R
RATON          CLEAR     45  38  76 NE6       30.19S
CLAYTON        CLEAR     55  46  71 SW6       30.14R

$$
NMZ532>537-230800-
EASTCENTRAL PLAINS

CITY           SKY/WX    TMP DP  RH WIND       PRES   REMARKS
TUCUMCARI      CLEAR     61  54  77 SW14      30.10S
CANNON AFB     FOG       55  55  98 S6        30.15R VSB 1/2
CLOVIS AIRPORT CLOUDY    59  55  88 S18G24    30.16F

$$
NMZ028-029-538-230800-
SOUTHEAST PLAINS

CITY           SKY/WX    TMP DP  RH WIND       PRES   REMARKS
ROSWELL        CLEAR     57  56  96 S7        30.11S FOG
CARLSBAD       CLEAR     59  57  93 S5        30.11S FOG
HOBBS          CLOUDY    55  55 100 S8        30.15S


$$



USA.gov is the U.S. government's official web portal to all federal, state and local government web resources and services.